TimeAKST,TemperatureF,Dew PointF,Humidity,Sea Level PressureIn,VisibilityMPH,Wind Direction,Wind SpeedMPH,Gust SpeedMPH,PrecipitationIn,Events,Conditions,WindDirDegrees,DateUTC
12:58 AM,-14.1,-18.9,79,30.38,10.0,NW,3.5,-,N/A,,Clear,310,2013-01-18 09:58:00
1:58 AM,-16.1,-20.9,79,30.39,10.0,Calm,Calm,-,N/A,,Clear,0,2013-01-18 10:58:00
2:58 AM,-20.9,-27.0,73,30.41,10.0,Calm,Calm,-,N/A,,Clear,0,2013-01-18 11:58:00
3:58 AM,-20.9,-27.0,73,30.43,10.0,Calm,Calm,-,N/A,,Clear,0,2013-01-18 12:58:00
4:58 AM,-20.9,-27.0,73,30.44,10.0,Calm,Calm,-,N/A,,Mostly Cloudy,0,2013-01-18 13:58:00
5:58 AM,-27.9,-33.0,77,30.45,10.0,Calm,Calm,-,N/A,,Clear,0,2013-01-18 14:58:00
6:58 AM,-29.0,-35.0,73,30.46,10.0,Calm,Calm,-,N/A,,Clear,0,2013-01-18 15:58:00
7:58 AM,-29.9,-9999,N/A,30.47,10.0,Calm,Calm,-,N/A,,Clear,0,2013-01-18 16:58:00
8:58 AM,-32.1,-9999,N/A,30.48,5.0,Calm,Calm,-,N/A,,Haze,0,2013-01-18 17:58:00
9:58 AM,-29.0,-33.0,81,30.50,10.0,NW,3.5,-,N/A,,Clear,310,2013-01-18 18:58:00
10:58 AM,-33.0,-9999,N/A,30.51,10.0,Calm,Calm,-,N/A,,Clear,0,2013-01-18 19:58:00
11:58 AM,-27.0,-34.1,69,30.53,10.0,Calm,Calm,-,N/A,,Clear,0,2013-01-18 20:58:00
12:58 PM,-26.0,-32.1,73,30.53,6.0,Calm,Calm,-,N/A,,Haze,0,2013-01-18 21:58:00
1:58 PM,-18.9,-26.0,70,30.52,6.0,Calm,Calm,-,N/A,,Haze,0,2013-01-18 22:58:00
2:58 PM,-18.9,-25.1,74,30.52,4.0,Calm,Calm,-,N/A,,Haze,0,2013-01-18 23:58:00
3:03 PM,-20.2,-27.4,69,30.49,1.8,Calm,Calm,-,N/A,,Haze,0,2013-01-19 00:03:00
3:10 PM,-22.0,-29.2,69,30.49,3.0,Calm,Calm,-,N/A,,Haze,0,2013-01-19 00:10:00
3:58 PM,-20.0,-26.0,74,30.51,10.0,West,3.5,-,N/A,,Clear,260,2013-01-19 00:58:00
4:15 PM,-20.2,-27.4,69,30.49,2.0,Calm,Calm,-,N/A,,Haze,0,2013-01-19 01:15:00
4:21 PM,-22.0,-29.2,69,30.49,4.0,Calm,Calm,-,N/A,,Haze,0,2013-01-19 01:21:00
4:58 PM,-24.0,-29.0,77,30.51,6.0,Calm,Calm,-,N/A,,Haze,0,2013-01-19 01:58:00
5:08 PM,-23.8,-29.2,76,30.48,2.5,West,3.5,-,N/A,,Haze,280,2013-01-19 02:08:00
5:12 PM,-23.8,-29.2,76,30.48,3.0,Calm,Calm,-,N/A,,Haze,0,2013-01-19 02:12:00
5:58 PM,-27.9,-34.1,73,30.51,10.0,Calm,Calm,-,N/A,,Clear,0,2013-01-19 02:58:00
6:58 PM,-29.9,-9999,N/A,30.51,10.0,Calm,Calm,-,N/A,,Clear,0,2013-01-19 03:58:00
7:58 PM,-29.9,-9999,N/A,30.50,9.0,Calm,Calm,-,N/A,,Clear,0,2013-01-19 04:58:00
8:58 PM,-33.0,-9999,N/A,30.50,10.0,Calm,Calm,-,N/A,,Clear,0,2013-01-19 05:58:00
9:58 PM,-33.0,-9999,N/A,30.48,9.0,Calm,Calm,-,N/A,,Clear,0,2013-01-19 06:58:00
10:58 PM,-34.1,-9999,N/A,30.48,10.0,Calm,Calm,-,N/A,,Clear,0,2013-01-19 07:58:00
11:58 PM,-34.1,-9999,N/A,30.47,10.0,Calm,Calm,-,N/A,,Clear,0,2013-01-19 08:58:00